�������C�����ː����j�^�v���󋵏��
Date,Time,Cs137(Bq/L),Cs134(Bq/L),�S��(Bq/L)
2016/10/28,00:00,0.92,0.12,ND
2016/10/28,00:10,0.91,0.11,ND
2016/10/28,00:20,0.94,0.11,ND
2016/10/28,00:30,0.93,0.12,ND
2016/10/28,00:40,0.87,0.11,ND
2016/10/28,00:50,0.93,0.11,ND
2016/10/28,01:00,0.93,0.11,ND
2016/10/28,01:10,0.88,0.11,ND
2016/10/28,01:20,0.89,0.11,ND
2016/10/28,01:30,0.92,0.093,ND
2016/10/28,01:40,0.92,0.088,ND
2016/10/28,01:50,0.93,0.086,ND
2016/10/28,02:00,0.90,0.091,ND
2016/10/28,02:10,0.92,0.086,ND
2016/10/28,02:20,0.91,0.092,ND
2016/10/28,02:30,0.90,0.10,ND
2016/10/28,02:40,0.90,0.11,ND
2016/10/28,02:50,0.89,0.096,ND
2016/10/28,03:00,0.93,0.096,ND
2016/10/28,03:10,0.97,0.096,ND
2016/10/28,03:20,0.99,0.092,ND
2016/10/28,03:30,1.0,0.086,ND
2016/10/28,03:40,1.0,0.088,ND
2016/10/28,03:50,1.1,0.096,ND
2016/10/28,04:00,1.1,0.099,ND
2016/10/28,04:10,1.1,0.095,ND
2016/10/28,04:20,1.1,0.10,ND
2016/10/28,04:30,1.1,0.11,ND
2016/10/28,04:40,1.1,0.099,ND
2016/10/28,04:50,1.1,0.086,ND
2016/10/28,05:00,1.1,0.087,ND
2016/10/28,05:10,1.1,0.082,ND
2016/10/28,05:20,1.1,0.081,ND
2016/10/28,05:30,1.1,0.097,ND
2016/10/28,05:40,1.1,0.10,ND
2016/10/28,05:50,1.1,0.12,ND
2016/10/28,06:00,1.1,0.12,ND
2016/10/28,06:10,1.0,0.12,ND
2016/10/28,06:20,1.0,0.13,ND
2016/10/28,06:30,1.0,0.13,ND
2016/10/28,06:40,1.1,0.12,ND
2016/10/28,06:50,1.1,0.12,ND
2016/10/28,07:00,1.1,0.12,ND
2016/10/28,07:10,1.1,0.13,ND
2016/10/28,07:20,1.1,0.13,ND
2016/10/28,07:30,1.1,0.14,ND
2016/10/28,07:40,1.1,0.16,ND
2016/10/28,07:50,1.1,0.15,ND
2016/10/28,08:00,1.1,0.15,ND
2016/10/28,08:10,1.1,0.16,ND
2016/10/28,08:20,1.1,0.16,ND
2016/10/28,08:30,1.1,0.15,ND
2016/10/28,08:40,1.1,0.14,ND
2016/10/28,08:50,1.1,0.15,ND
2016/10/28,09:00,1.1,0.13,ND
2016/10/28,09:10,1.1,0.11,ND
2016/10/28,09:20,1.1,0.11,ND
2016/10/28,09:30,1.1,0.11,ND
2016/10/28,09:40,1.2,0.14,ND
2016/10/28,09:50,1.2,0.14,ND
2016/10/28,10:00,1.1,0.12,ND
2016/10/28,10:10,1.1,0.12,ND
2016/10/28,10:20,1.1,0.12,ND
2016/10/28,10:30,1.1,0.14,ND
2016/10/28,10:40,1.1,0.13,ND
2016/10/28,10:50,1.1,0.14,ND
2016/10/28,11:00,1.1,0.14,ND
2016/10/28,11:10,1.0,0.13,ND
2016/10/28,11:20,1.0,0.13,ND
2016/10/28,11:30,0.99,0.12,ND
2016/10/28,11:40,1.0,0.11,ND
2016/10/28,11:50,1.0,0.099,ND
2016/10/28,12:00,1.0,0.10,ND
2016/10/28,12:10,1.0,0.12,ND
2016/10/28,12:20,0.99,0.12,ND
2016/10/28,12:30,0.98,0.13,ND
2016/10/28,12:40,0.97,0.14,ND
2016/10/28,12:50,0.98,0.14,ND
2016/10/28,13:00,0.99,0.14,ND
2016/10/28,13:10,1.0,0.13,ND
2016/10/28,13:20,1.0,0.13,ND
2016/10/28,13:30,1.1,0.12,ND
2016/10/28,13:40,1.1,0.12,ND
2016/10/28,13:50,1.1,0.12,ND
2016/10/28,14:00,1.1,0.11,ND
2016/10/28,14:10,1.0,0.11,ND
2016/10/28,14:20,1.0,0.11,ND
2016/10/28,14:30,1.0,0.11,ND
2016/10/28,14:40,0.97,0.099,ND
2016/10/28,14:50,0.95,0.099,ND
2016/10/28,15:00,0.94,0.099,ND
2016/10/28,15:10,0.93,0.11,ND
2016/10/28,15:20,0.93,0.096,ND
2016/10/28,15:30,0.93,0.096,ND
2016/10/28,15:40,0.98,0.11,ND
2016/10/28,15:50,0.99,0.13,ND
2016/10/28,16:00,1.0,0.13,ND
2016/10/28,16:10,1.0,0.14,ND
2016/10/28,16:20,1.0,0.15,ND
2016/10/28,16:30,1.0,0.16,ND
2016/10/28,16:40,1.0,0.15,ND
2016/10/28,16:50,1.1,0.14,ND
2016/10/28,17:00,1.1,0.15,ND
2016/10/28,17:10,1.1,0.15,ND
2016/10/28,17:20,1.2,0.15,ND
2016/10/28,17:30,1.2,0.15,ND
2016/10/28,17:40,1.2,0.15,ND
2016/10/28,17:50,1.1,0.15,ND
2016/10/28,18:00,1.1,0.14,ND
2016/10/28,18:10,1.1,0.15,ND
2016/10/28,18:20,1.2,0.17,ND
2016/10/28,18:30,1.1,0.18,ND
2016/10/28,18:40,1.2,0.18,ND
2016/10/28,18:50,1.2,0.18,ND
2016/10/28,19:00,1.2,0.20,ND
2016/10/28,19:10,1.2,0.20,ND
2016/10/28,19:20,1.2,0.21,ND
2016/10/28,19:30,1.3,0.21,ND
2016/10/28,19:40,1.2,0.20,ND
2016/10/28,19:50,1.2,0.20,ND
2016/10/28,20:00,1.2,0.20,ND
2016/10/28,20:10,1.2,0.19,ND
2016/10/28,20:20,1.2,0.20,ND
2016/10/28,20:30,1.1,0.17,ND
2016/10/28,20:40,1.1,0.16,ND
2016/10/28,20:50,1.0,0.17,ND
2016/10/28,21:00,1.0,0.16,ND
2016/10/28,21:10,1.0,0.17,ND
2016/10/28,21:20,1.0,0.17,ND
2016/10/28,21:30,1.0,0.17,ND
2016/10/28,21:40,1.0,0.17,ND
2016/10/28,21:50,1.0,0.17,ND
2016/10/28,22:00,0.99,0.17,ND
2016/10/28,22:10,1.0,0.16,ND
2016/10/28,22:20,0.99,0.15,ND
2016/10/28,22:30,0.98,0.16,ND
2016/10/28,22:40,0.99,0.15,ND
2016/10/28,22:50,0.97,0.14,ND
2016/10/28,23:00,0.99,0.15,ND
2016/10/28,23:10,0.96,0.15,ND
2016/10/28,23:20,0.98,0.15,ND
2016/10/28,23:30,0.97,0.15,ND
2016/10/28,23:40,0.97,0.15,ND
2016/10/28,23:50,1.0,0.15,ND
